User: anonymous   Login
Location: Unspecified
(0.0000°N, 0.0000°E)
Time: 23:49:05
(UTC+00:00)
Language:

Kosmos-2154 - Orbit

View from above orbital plane
View from above orbital plane
View from above satellite
View from above satellite

Ground track
Ground track

The orbit data is extracted from the following two-line orbital elements,

1 21666U 91059A   17349.25564069  .00000011  00000-0 -38161-5 0  9993
2 21666  82.9079 255.5089 0024327 203.3601 272.0275 13.73306361318791
Epoch (UTC): 15 December 2017 06:08:07
Eccentricity: 0.0024327
inclination: 82.9079°
perigee height: 970 km
apogee height: 1005 km
right ascension of ascending node: 255.5089°
argument of perigee: 203.3601°
revolutions per day: 13.73306361
mean anomaly at epoch: 272.0275°
orbit number at epoch: 31879

The dashed part of the orbit path shows where the satellite is in the earth's shadow,  

DLR